TimePDT,TemperatureF,Dew PointF,Humidity,Sea Level PressureIn,VisibilityMPH,Wind Direction,Wind SpeedMPH,Gust SpeedMPH,PrecipitationIn,Events,Conditions,WindDirDegrees,DateUTC
12:56 AM,63.0,32.0,31,29.97,10.0,North,3.5,-,N/A,,Clear,10,2013-08-11 07:56:00
1:56 AM,57.9,28.9,33,29.98,10.0,Calm,Calm,-,N/A,,Clear,0,2013-08-11 08:56:00
2:56 AM,57.0,34.0,42,29.99,10.0,South,6.9,-,N/A,,Clear,180,2013-08-11 09:56:00
3:56 AM,55.9,33.1,42,29.99,10.0,SSW,4.6,-,N/A,,Clear,210,2013-08-11 10:56:00
4:56 AM,53.1,30.9,43,29.99,10.0,Calm,Calm,-,N/A,,Clear,0,2013-08-11 11:56:00
5:56 AM,50.0,30.9,48,29.99,10.0,SSE,6.9,-,N/A,,Clear,150,2013-08-11 12:56:00
6:56 AM,57.0,33.1,40,30.00,10.0,SSE,5.8,-,N/A,,Clear,150,2013-08-11 13:56:00
7:56 AM,63.0,36.0,37,30.01,10.0,Calm,Calm,-,N/A,,Clear,0,2013-08-11 14:56:00
8:56 AM,69.1,39.0,33,30.01,10.0,Variable,3.5,-,N/A,,Clear,0,2013-08-11 15:56:00
9:56 AM,73.0,36.0,26,30.00,10.0,Variable,3.5,-,N/A,,Clear,0,2013-08-11 16:56:00
10:56 AM,78.1,33.1,19,29.99,10.0,Calm,Calm,-,N/A,,Clear,0,2013-08-11 17:56:00
11:01 AM,78.8,32.0,18,30.08,10.0,WNW,4.6,-,N/A,,Clear,290,2013-08-11 18:01:00
11:56 AM,79.0,30.0,17,29.97,10.0,Calm,Calm,-,N/A,,Partly Cloudy,0,2013-08-11 18:56:00
12:56 PM,84.0,30.9,15,29.95,10.0,NNE,8.1,-,N/A,,Partly Cloudy,30,2013-08-11 19:56:00
1:56 PM,84.9,30.0,14,29.94,10.0,Variable,3.5,-,N/A,,Partly Cloudy,0,2013-08-11 20:56:00
2:56 PM,87.1,26.1,11,29.92,10.0,West,6.9,16.1,N/A,,Partly Cloudy,270,2013-08-11 21:56:00
3:56 PM,88.0,27.0,11,29.90,10.0,NW,6.9,-,N/A,,Partly Cloudy,310,2013-08-11 22:56:00
4:56 PM,89.1,26.1,10,29.88,10.0,North,6.9,-,N/A,,Scattered Clouds,10,2013-08-11 23:56:00
5:56 PM,89.1,26.1,10,29.86,10.0,NW,9.2,-,N/A,,Scattered Clouds,320,2013-08-12 00:56:00
6:56 PM,88.0,26.1,11,29.86,10.0,NW,10.4,-,N/A,,Clear,320,2013-08-12 01:56:00
7:56 PM,84.0,26.1,12,29.86,10.0,WNW,5.8,-,N/A,,Clear,300,2013-08-12 02:56:00
8:56 PM,80.1,27.0,14,29.88,10.0,NW,3.5,-,N/A,,Clear,310,2013-08-12 03:56:00
9:56 PM,77.0,28.9,17,29.90,10.0,WNW,9.2,-,N/A,,Clear,300,2013-08-12 04:56:00
10:56 PM,73.9,32.0,21,29.91,10.0,WNW,10.4,-,N/A,,Clear,300,2013-08-12 05:56:00
11:56 PM,68.0,32.0,26,29.93,9.0,East,9.2,-,N/A,,Clear,90,2013-08-12 06:56:00